Theta_e
306 306 307 307 308 307 308 309 308 308 308 308 310 310 310 310 312 313 311 311 311 312
304 304 304 305 306 306 306 308 308 307 307 307 308 309 308 308 309 308 309 310 311 311
302 303 304 303 303 303 304 305 307 308 309 308 306 306 304 304 305 305 306 309 309 310
301 302 302 301 302 303 304 304 304 305 305 305 305 305 303 303 305 305 305 306 307 309
300 299 299 299 300 301 302 305 307 307 307 307 305 304 303 304 306 306 305 307 307 308
298 298 299 301 301 303 303 303 304 305 305 306 307 305 306 304 306 307 309 309 310 309
299 300 301 302 302 301 303 303 304 304 305 306 307 306 307 307 305 306 308 310 310 310
301 301 301 302 302 303 303 303 303 303 304 305 305 306 306 306 305 304 305 307 308 308
301 301 301 301 302 302 302 302 303 303 303 303 304 304 305 306 304 304 303 303 305 304
301 301 301 302 302 302 302 302 302 302 302 302 304 302 302 304 304 302 302 304 302 303
301 301 302 302 302 302 302 302 302 302 303 303 304 302 300 302 303 303 302 303 305 303
301 301 302 302 303 303 303 303 303 303 303 303 303 301 300 300 302 302 301 303 304 304
302 302 303 304 304 305 304 304 304 304 305 304 303 301 299 300 302 300 301 302 302 304
303 304 305 305 304 304 303 303 302 300 301 302 303 303 299 298 302 301 301 301 302 301
Wind_Speed
4 2 3 4 4 5 4 4 3 4 4 4 4 3 4 3 3 4 4 5 4 3
6 7 6 8 6 3 4 4 6 6 6 5 4 4 5 4 4 4 5 6 5 4
7 6 5 5 6 6 6 6 6 5 4 5 5 6 5 4 4 5 5 4 5 5
7 7 6 6 6 7 7 8 7 7 6 6 6 6 5 6 6 6 6 5 6 8
7 7 7 7 7 8 7 7 7 7 6 7 7 7 7 7 6 6 6 6 6 7
10 8 9 9 9 9 9 9 9 8 10 11 10 7 8 7 6 6 6 7 6 5
11 11 11 11 11 10 9 9 9 9 9 9 8 7 8 7 6 5 5 6 5 4
12 12 12 11 11 11 10 9 10 10 9 9 8 7 7 7 6 5 5 5 4 5
13 13 13 12 12 11 11 11 10 10 10 10 7 10 11 10 5 5 5 5 4 5
13 13 13 13 12 11 11 10 10 10 10 11 10 11 11 11 7 6 5 6 5 5
14 14 13 12 11 11 9 10 9 9 10 9 9 12 12 12 7 6 7 6 5 6
14 14 14 12 11 10 9 8 9 9 10 9 9 11 11 8 6 7 7 7 7 6
15 14 14 12 10 7 7 7 6 8 7 10 9 10 11 8 4 6 5 6 5 8
15 15 13 10 9 8 6 6 5 8 6 7 7 7 11 10 6 5 5 4 4 4
Wind_Direction
345 299 275 255 255 249 244 241 247 261 253 258 238 223 200 209 221 237 249 252 246 235
306 301 285 283 268 251 247 244 236 237 246 258 253 239 223 221 234 230 238 240 235 240
295 302 307 319 314 307 299 290 281 269 261 253 247 249 252 267 262 242 244 230 236 233
306 296 299 294 285 277 266 263 262 254 251 250 251 249 243 236 245 247 254 245 237 243
292 291 288 275 279 276 266 268 265 257 253 252 239 236 234 231 238 232 241 242 238 243
294 289 286 291 280 277 276 276 271 267 266 263 248 225 231 225 233 229 239 243 221 234
296 300 299 294 288 280 276 275 269 264 265 264 252 252 257 240 218 230 249 238 211 215
304 301 295 292 288 282 277 272 271 267 262 259 251 252 245 239 219 220 248 226 220 222
302 299 293 290 287 281 276 268 267 262 261 260 250 241 237 241 220 207 220 214 205 233
306 301 296 289 284 280 275 270 265 259 253 253 248 239 238 235 235 231 221 222 198 208
306 300 296 289 281 275 271 264 259 258 250 245 243 232 229 234 231 221 219 225 206 198
306 302 299 291 285 276 271 266 259 252 251 243 243 225 222 213 221 210 213 217 215 210
307 301 296 298 294 286 274 272 267 267 251 245 243 222 212 201 203 194 198 204 195 197
310 307 308 313 319 301 287 276 281 284 278 261 245 229 203 195 190 186 179 186 182 190